Wind_Speed
14 14 14 14 14 13 13 12 12 12 11 12 12 12 11 10 9 8 8 7 8 8 8 9 10 11 11 11 11 10 9 10 9 11 13 7 6 10 12 12 11 9 7 6 7 9 11 12 12 11 11 12 12 12 11 9 8 6 2 0 2 2 2 3 8 6 5 7 6 7 7 7 8 6 8 11 10 12 11 10 14 18 22 24 26 28 28 26
14 15 15 15 15 14 14 13 12 12 11 11 11 12 12 11 9 8 7 7 8 8 8 8 9 10 11 10 10 10 9 9 11 14 13 7 8 10 10 11 12 10 8 8 10 11 12 11 10 10 11 11 12 11 9 7 4 3 1 0 3 1 1 4 9 9 8 10 9 8 9 9 10 8 8 10 11 12 11 12 19 24 26 27 28 27 26 26
15 15 15 15 15 15 14 14 13 12 11 11 11 11 11 11 9 8 7 7 7 8 8 8 9 10 10 10 10 9 8 10 13 14 10 6 8 9 9 10 11 10 10 9 10 11 11 10 9 10 12 11 11 9 7 5 3 3 1 0 3 2 5 9 11 10 10 15 12 8 9 9 9 10 9 10 11 11 11 16 22 25 28 28 27 26 25 25
15 15 15 15 15 15 15 15 13 12 11 11 11 11 11 10 9 8 7 7 7 7 8 7 8 10 10 10 9 8 9 11 8 3 2 4 5 7 9 9 10 11 9 9 10 12 11 11 10 10 12 11 11 10 8 6 4 4 3 2 1 6 8 10 10 11 14 17 13 9 9 8 9 7 8 12 11 9 12 18 22 25 29 29 28 25 23 23
16 16 16 16 15 15 15 14 13 12 11 10 10 11 10 10 9 8 7 7 7 7 7 7 8 9 9 9 8 8 8 5 1 2 4 6 7 7 9 8 8 10 9 11 10 12 12 13 11 11 11 10 10 9 8 9 7 4 4 3 7 9 10 13 10 11 16 16 12 10 10 8 9 5 4 9 6 7 14 19 23 26 28 29 27 25 23 23
16 16 15 16 15 15 15 14 14 12 11 10 10 11 11 11 10 9 8 8 7 7 7 7 7 8 8 8 9 8 5 3 3 2 6 7 8 8 8 8 8 10 11 12 11 13 12 13 12 11 10 9 11 8 7 7 5 3 3 7 13 11 13 15 12 10 12 14 12 8 9 7 8 7 4 6 4 8 16 19 23 25 27 28 26 24 23 22
16 15 15 15 14 15 15 15 14 13 12 11 11 11 11 11 10 9 9 8 8 8 8 8 7 7 7 8 9 6 9 9 3 3 5 8 7 6 7 9 9 12 15 13 12 12 12 13 12 12 10 9 11 9 7 5 5 5 3 12 13 15 19 16 16 14 9 12 11 6 8 7 7 8 6 7 7 11 18 20 24 25 25 26 24 24 22 22
15 14 14 13 13 14 15 15 15 14 14 13 13 12 11 11 10 9 9 8 9 9 9 9 8 7 7 7 7 8 12 9 4 5 8 9 9 6 8 10 11 14 16 14 13 12 12 13 13 11 10 10 9 6 5 5 6 3 6 12 12 17 21 15 16 15 10 10 9 7 7 7 8 9 8 10 11 13 19 21 24 25 25 24 23 23 21 21
15 13 12 12 12 13 14 15 15 15 15 14 13 12 12 11 10 9 8 8 9 10 11 10 9 6 7 6 6 8 6 0 5 8 11 11 10 5 9 10 12 15 15 13 12 13 12 11 13 12 11 12 11 8 5 5 1 7 11 9 11 20 20 12 12 14 10 9 10 10 6 6 8 7 10 14 14 16 21 23 25 24 24 23 22 22 21 20
15 13 12 11 11 13 14 14 15 15 14 14 13 12 12 11 10 10 9 9 9 10 11 12 10 7 6 6 7 7 1 2 5 5 7 9 8 5 9 9 11 14 13 12 12 14 13 11 11 11 13 14 12 9 6 4 3 12 16 12 13 22 19 12 12 14 11 8 10 10 6 5 5 3 8 14 16 20 22 23 24 23 23 22 22 21 20 20
14 12 11 10 11 12 13 14 14 15 14 14 13 12 12 12 11 10 10 10 11 11 11 12 11 8 6 5 10 7 0 4 6 3 4 6 5 6 9 9 11 13 13 12 12 13 13 12 10 9 9 8 9 10 8 7 7 12 19 18 15 17 15 12 12 12 10 6 9 11 7 5 3 3 8 14 17 19 22 24 23 22 22 21 22 20 19 19
13 12 10 9 10 12 13 13 14 14 14 14 13 13 12 12 11 11 11 11 11 11 11 12 11 9 8 9 13 8 4 5 5 3 4 4 4 6 8 9 11 13 13 11 11 11 13 12 10 12 8 5 7 8 5 6 10 13 17 15 11 11 9 9 10 9 6 5 12 13 9 5 3 6 11 14 17 18 21 22 22 22 21 21 21 20 19 19
12 11 10 9 9 11 12 13 12 13 14 14 13 13 12 11 11 10 10 11 10 10 11 10 9 8 8 9 7 5 6 6 5 4 5 6 6 7 8 9 11 13 13 12 10 10 12 12 11 14 12 10 9 5 5 4 8 10 14 11 9 6 3 5 7 8 5 7 14 9 5 5 4 9 13 14 16 18 20 20 21 21 21 21 20 19 19 19
11 10 9 8 8 10 12 13 12 13 14 14 14 13 12 11 10 9 9 10 10 9 9 8 7 5 7 8 4 7 7 5 5 5 6 7 8 8 8 9 10 12 12 12 10 9 11 11 10 13 13 14 13 10 7 6 8 6 10 8 6 4 4 6 7 9 7 8 8 1 2 7 6 9 12 15 17 18 19 20 21 20 21 21 19 19 19 19
9 9 9 8 8 9 11 13 13 13 15 15 14 14 13 11 9 8 9 10 9 8 5 5 6 4 8 10 3 8 4 6 6 7 7 7 8 7 8 9 11 11 11 11 9 8 9 7 8 11 11 14 15 11 7 6 7 6 7 6 6 5 5 7 10 12 8 8 7 2 3 6 7 9 10 14 17 17 19 19 20 20 20 21 19 19 19 19
8 9 8 8 9 9 10 12 13 14 15 15 14 14 13 12 8 6 9 10 8 6 3 3 7 7 9 5 2 5 1 6 7 7 6 7 7 7 8 8 10 11 10 10 7 6 7 8 10 12 12 12 11 8 6 6 7 7 7 5 6 6 6 5 9 10 7 9 9 5 3 5 7 10 10 14 17 17 18 18 20 21 20 20 19 19 19 19
7 8 8 8 8 9 10 11 13 15 15 15 15 15 14 11 6 4 5 7 7 6 2 1 3 8 9 3 3 3 2 3 5 7 7 6 6 6 8 9 10 11 10 11 8 5 6 10 9 9 11 10 8 8 7 7 7 7 9 6 7 8 8 6 6 9 10 10 9 6 5 6 7 9 10 13 16 16 18 18 18 20 20 19 19 19 19 19
7 7 7 8 8 10 11 12 13 14 15 15 15 16 15 8 3 3 4 7 7 4 4 3 3 6 6 4 3 2 1 1 4 6 7 6 5 5 8 9 9 10 10 11 11 9 8 10 9 7 8 8 8 9 7 8 7 6 7 3 5 7 7 7 6 10 13 11 10 9 7 6 7 8 10 14 16 15 17 19 18 18 19 19 18 19 19 19
7 7 7 8 8 10 11 12 13 14 15 14 15 17 14 6 3 3 3 6 5 4 3 4 7 4 3 2 1 1 1 1 5 6 6 6 5 6 9 8 8 11 11 9 10 12 10 9 9 7 7 9 10 11 10 11 8 6 5 0 3 4 4 6 7 10 14 11 9 10 7 6 8 8 10 16 17 13 11 14 17 18 18 18 18 18 20 19
8 7 7 8 8 10 11 12 12 13 13 13 17 18 13 6 3 2 3 5 11 8 7 2 5 9 5 1 2 1 2 3 6 7 6 6 7 8 10 9 10 11 10 8 8 13 12 8 8 9 9 11 13 13 15 15 12 8 3 5 4 4 3 4 6 10 13 9 8 9 7 7 8 7 10 16 15 10 7 8 15 18 17 18 18 18 19 19
8 7 8 7 8 9 10 11 11 11 12 11 15 16 12 12 8 5 9 10 11 5 5 4 5 7 5 4 6 4 5 6 8 7 6 7 9 8 9 10 10 8 10 12 9 10 11 9 9 11 12 14 14 14 16 16 14 8 3 7 6 5 1 3 3 8 9 5 5 7 8 9 8 7 11 15 13 9 10 9 13 19 18 17 18 18 19 19
8 8 8 7 8 9 9 10 10 10 10 10 12 13 11 12 11 10 13 13 7 2 4 2 4 5 1 5 8 4 7 8 7 8 7 9 11 8 9 9 9 7 9 13 9 8 9 9 11 13 12 14 14 14 16 14 13 9 4 6 4 8 4 4 3 5 4 2 3 6 8 9 8 7 10 14 13 9 11 12 12 16 18 18 18 18 20 19
9 8 8 8 8 8 9 9 9 8 7 9 11 12 11 10 11 11 12 13 9 4 4 2 5 2 1 4 2 5 11 8 6 9 8 9 12 10 8 8 9 9 9 11 10 7 7 9 13 14 12 13 15 15 14 10 12 10 5 4 5 11 9 3 4 5 6 4 5 9 7 5 6 7 7 13 14 9 10 12 9 10 14 16 18 17 19 20
9 8 8 8 8 7 8 7 8 9 11 12 10 8 10 11 11 12 12 13 10 4 3 3 4 5 6 5 3 7 9 5 5 8 9 10 12 8 8 8 8 10 10 11 13 10 8 9 13 16 14 13 14 14 11 10 11 9 8 7 6 13 10 5 7 7 6 4 4 7 5 3 5 7 7 10 10 7 10 13 8 8 10 12 16 17 19 21
9 8 7 8 7 6 7 7 8 12 16 15 8 5 10 11 10 11 11 11 7 2 2 1 2 3 4 2 5 6 7 5 7 8 7 12 13 7 6 9 8 9 11 12 13 11 9 10 13 15 15 13 14 12 9 9 7 6 11 11 9 13 11 10 10 7 4 3 4 6 3 2 5 7 7 6 5 6 10 12 12 9 9 10 14 17 19 20
9 8 8 8 7 6 9 9 7 10 13 10 5 8 10 10 11 11 9 8 3 3 6 3 1 2 2 3 4 6 6 3 5 6 5 11 13 9 6 7 8 9 12 9 8 6 8 12 12 13 14 14 14 9 6 8 6 6 10 13 14 11 13 18 12 5 3 2 5 8 4 1 2 6 8 7 7 10 9 11 14 12 11 12 14 17 19 20
9 8 8 8 7 7 10 9 7 11 13 7 7 10 10 11 12 10 7 6 1 0 1 4 4 2 1 1 4 7 1 3 4 5 5 9 10 10 8 6 6 8 10 5 5 4 9 15 11 11 13 13 11 6 8 11 8 8 9 10 12 14 17 20 15 4 3 1 3 8 6 2 3 6 9 11 12 13 12 12 14 14 14 14 16 19 21 21
9 8 7 8 7 7 9 10 8 11 12 10 12 12 10 12 12 7 6 4 4 1 3 5 5 3 1 3 5 5 2 1 3 5 3 7 8 9 9 8 6 8 7 6 6 6 10 16 11 11 11 9 7 7 11 13 9 10 8 12 5 16 17 16 13 7 7 5 1 7 7 4 3 5 8 11 13 15 16 15 15 17 17 16 18 21 22 22
9 8 8 8 7 7 9 10 9 10 10 11 14 13 12 13 10 5 5 3 2 1 3 3 4 1 3 5 6 3 4 4 2 2 4 7 9 11 9 8 10 11 11 9 9 5 9 13 9 8 8 6 6 8 13 12 9 11 7 9 8 9 14 12 10 8 9 7 5 10 12 6 2 4 8 10 12 14 15 14 15 19 19 19 20 21 21 23
9 7 8 8 8 7 8 8 7 11 10 12 15 15 15 11 7 6 4 2 1 3 3 2 2 2 4 7 7 4 2 5 2 1 7 7 9 11 10 10 12 12 10 9 10 12 11 8 3 4 6 8 9 10 12 14 13 12 8 5 8 4 7 8 8 7 6 7 8 15 17 10 3 5 9 10 11 13 13 12 14 19 22 22 23 23 22 23
9 7 8 8 8 7 9 9 5 8 10 13 16 16 14 7 4 7 3 1 1 3 1 2 3 1 6 6 2 3 2 6 3 2 6 4 5 8 8 9 7 9 8 7 8 13 13 7 5 6 9 11 12 11 12 15 14 10 7 5 6 5 4 6 5 5 6 7 6 13 19 14 6 6 11 12 11 13 14 13 16 19 23 25 24 24 23 23
9 8 9 9 9 9 10 10 5 7 11 14 16 15 11 5 4 6 3 1 2 5 6 2 7 6 3 2 1 2 0 3 3 1 3 3 4 5 6 6 4 6 7 5 7 9 10 9 9 9 9 11 12 8 8 10 8 7 6 4 4 6 5 5 5 6 6 5 6 8 11 11 5 6 15 17 13 15 16 16 20 22 25 27 26 26 26 25
9 8 9 8 10 10 9 8 7 10 12 14 15 12 8 5 3 2 3 3 3 2 6 3 5 7 5 3 2 4 2 1 2 2 4 3 3 4 7 5 4 7 5 5 7 7 9 10 10 8 7 11 13 8 6 7 7 8 8 6 5 7 6 6 7 6 5 5 9 10 6 4 4 6 13 18 16 17 17 17 21 24 26 28 27 27 27 26
9 8 8 8 9 9 8 7 7 10 12 13 13 9 7 6 3 2 4 7 6 3 4 1 3 7 3 3 4 5 4 2 6 4 3 4 4 3 6 5 6 8 5 6 7 7 9 9 9 8 6 11 14 13 9 9 10 9 8 7 7 8 5 5 5 5 6 6 10 11 7 3 5 5 8 12 14 15 16 16 17 20 24 27 28 28 26 27
7 7 7 7 7 7 6 7 7 9 10 12 10 6 6 5 3 5 5 5 7 7 4 4 5 8 2 3 5 7 5 3 3 4 4 4 2 1 3 4 6 6 5 5 4 6 10 8 10 14 12 12 13 14 13 11 9 9 7 9 9 8 6 6 5 4 5 6 6 6 2 4 6 9 8 8 11 12 13 15 14 16 22 26 28 29 26 26
5 5 5 5 6 6 6 7 7 7 9 11 8 5 6 2 3 6 5 6 7 8 8 4 4 6 3 2 3 4 2 2 4 2 2 5 3 1 3 2 1 5 5 3 3 4 7 8 5 15 15 13 13 15 14 10 7 6 8 10 8 8 8 7 6 4 5 5 5 5 3 8 6 10 14 12 12 9 7 8 12 17 22 24 26 28 25 25
3 6 6 6 7 6 6 7 6 6 9 9 5 6 7 3 4 5 5 7 8 4 8 6 4 5 4 1 2 1 2 3 6 5 2 5 3 0 3 1 1 6 8 4 4 5 4 9 8 9 13 12 14 16 16 13 11 4 7 9 8 8 9 8 6 5 6 5 5 7 1 7 4 5 13 15 12 8 5 7 13 19 23 22 23 27 27 25
7 9 9 8 7 5 7 7 6 8 9 8 6 7 8 2 4 7 7 8 9 5 5 4 3 3 4 2 2 3 2 3 4 2 4 4 3 5 7 4 2 3 7 4 3 3 2 7 9 4 8 9 13 12 13 14 16 11 6 6 7 8 8 6 7 5 6 6 5 7 2 4 2 2 8 11 12 12 11 11 13 16 20 20 22 26 28 25
8 10 11 9 7 5 7 7 7 10 9 7 7 4 4 2 4 5 7 7 6 4 4 3 2 3 4 4 4 3 1 1 3 5 4 1 3 5 8 5 3 3 7 7 5 3 1 4 6 3 8 10 9 8 8 9 13 14 10 8 6 6 6 7 6 4 6 6 5 5 3 3 3 1 3 5 13 14 12 11 12 16 18 20 23 27 28 25
8 11 8 11 9 5 6 7 9 10 7 7 8 2 2 4 3 3 4 6 6 4 3 4 2 3 5 5 5 3 2 4 2 4 4 3 4 6 4 4 4 5 9 9 7 5 1 3 4 5 8 10 8 7 8 8 9 10 9 8 7 6 6 6 6 6 7 6 3 3 2 2 2 0 2 9 15 13 9 7 9 16 19 20 23 26 28 26
11 11 6 12 9 5 6 9 9 9 7 8 9 3 3 6 8 5 2 2 5 2 2 5 4 3 5 4 3 3 3 3 3 1 1 1 2 1 1 3 5 6 7 7 6 3 1 1 4 7 6 8 7 7 10 12 11 10 8 9 9 7 7 6 6 7 7 5 4 4 3 3 1 1 6 12 14 14 13 11 8 13 19 19 20 24 28 28
12 8 6 13 9 6 8 9 8 11 8 1 2 1 4 2 8 8 3 2 3 0 2 4 4 3 5 4 3 4 5 3 2 2 1 2 1 2 3 2 6 5 5 6 3 5 5 2 3 6 6 9 13 10 10 15 16 13 11 10 8 6 6 6 6 6 6 6 6 7 3 3 1 1 8 12 12 13 15 14 11 12 16 18 19 22 25 27
12 7 7 12 8 7 9 8 7 11 5 5 2 0 3 2 6 3 4 3 3 2 3 4 3 2 3 2 4 5 3 3 5 4 1 2 1 4 3 4 8 6 4 3 2 5 4 2 2 6 7 9 15 17 12 15 15 12 11 11 9 8 7 8 7 5 6 6 7 7 3 2 4 5 9 14 10 8 9 9 8 8 11 16 21 23 23 23
15 13 6 9 6 8 10 8 5 7 4 2 2 2 1 4 5 4 7 6 4 4 5 4 2 3 3 3 6 6 1 2 5 5 4 1 3 3 1 3 6 5 4 5 4 5 3 1 1 4 7 6 8 11 8 10 11 9 10 13 13 13 15 13 9 6 6 7 7 6 2 4 2 2 9 12 7 4 3 2 5 5 7 14 21 22 21 20
16 14 7 8 5 8 11 10 7 9 7 2 3 5 5 5 4 3 7 6 4 6 6 4 3 4 6 4 6 6 3 2 3 4 5 2 2 1 0 3 6 4 8 8 7 7 4 1 1 2 4 5 5 5 5 4 6 8 10 12 13 15 17 15 8 6 5 7 10 4 5 7 7 8 13 13 7 4 3 3 2 4 6 13 19 20 20 20
11 9 6 8 8 9 12 12 11 11 7 1 2 3 4 5 5 3 5 5 2 5 7 6 4 4 4 5 6 6 5 3 1 2 4 4 5 3 0 5 8 4 9 7 5 5 6 2 2 3 3 6 8 9 12 11 10 8 10 11 12 15 16 13 8 7 6 6 5 3 10 11 11 12 14 15 12 9 6 2 1 3 6 11 17 22 26 25
8 7 7 4 5 7 11 13 13 9 5 4 1 3 4 6 2 5 5 3 2 5 7 4 4 5 3 5 6 6 7 6 5 6 6 4 3 6 4 8 8 6 6 6 6 3 6 3 3 5 6 9 11 14 15 13 13 11 7 11 13 13 17 15 11 10 9 6 2 6 9 11 11 11 11 12 11 10 13 13 8 7 8 12 15 21 24 22
8 9 10 7 3 6 6 7 9 8 5 4 1 2 4 6 4 4 6 1 2 4 4 2 4 5 5 4 5 4 5 6 4 5 7 4 3 6 7 8 9 4 2 8 5 3 5 4 2 5 7 10 12 14 14 11 12 12 9 12 18 13 11 13 14 14 12 7 3 10 12 10 10 10 8 9 9 9 11 15 16 14 12 13 15 16 17 16
9 11 12 10 8 8 4 5 6 7 7 4 1 2 3 6 8 5 1 2 4 1 3 6 5 4 6 6 4 3 4 5 2 3 5 7 5 5 5 4 8 8 7 7 3 1 2 3 4 6 8 10 12 12 13 11 7 7 12 16 21 23 22 18 16 13 8 8 4 14 18 13 8 8 8 8 10 11 10 11 15 16 14 13 13 12 14 16
9 11 13 15 14 11 10 7 6 7 4 2 1 4 3 6 9 4 1 4 6 3 2 8 6 4 5 5 3 4 3 4 1 2 2 6 5 4 3 3 6 6 5 6 4 1 1 1 4 7 6 7 10 13 11 7 4 8 14 18 19 21 22 20 14 7 10 12 8 12 16 12 8 8 10 10 10 11 11 10 11 11 11 13 16 14 14 17
12 11 12 13 10 8 11 9 6 6 3 3 4 4 4 7 6 3 1 2 6 7 5 6 7 4 4 4 4 5 4 3 3 3 6 7 4 2 2 3 6 6 4 4 3 1 2 1 2 5 5 4 8 13 10 4 3 6 11 15 16 15 14 14 14 13 13 12 10 9 9 6 7 9 10 9 8 8 9 7 6 7 5 6 14 18 15 15
15 12 11 11 8 6 9 8 7 7 5 5 6 5 5 8 3 2 1 1 6 10 7 7 7 4 4 3 2 4 5 6 8 6 5 6 5 6 5 5 7 5 3 4 3 3 4 2 1 2 3 4 5 9 10 4 2 3 6 6 7 8 8 10 10 14 14 11 8 6 4 2 4 6 6 8 7 7 9 8 6 9 11 11 13 15 15 16
Wind_Direction
10 8 7 6 4 1 359 357 353 350 345 342 338 337 338 335 334 328 326 327 331 336 336 338 338 333 326 324 322 315 308 297 291 279 269 256 230 241 254 257 258 255 241 221 196 204 220 226 233 239 240 245 245 245 256 251 247 264 246 193 264 249 278 139 145 166 134 127 145 156 163 145 139 139 136 147 139 130 140 139 135 136 131 128 131 135 137 137
10 8 9 8 5 2 359 357 354 349 346 343 340 342 345 343 342 337 334 332 336 341 340 340 340 335 327 325 324 317 306 296 285 275 271 263 249 253 257 254 252 244 231 209 196 212 220 222 227 229 236 244 244 237 244 245 229 258 269 276 275 230 112 99 128 146 140 141 149 155 162 152 148 155 150 145 138 143 151 137 130 125 122 126 134 138 138 139
9 9 9 10 6 2 358 356 353 348 343 341 342 346 350 352 352 349 348 346 347 347 343 344 343 338 330 326 324 317 307 300 288 280 277 262 257 257 248 250 248 235 231 211 201 221 226 229 230 227 236 245 246 236 233 229 201 247 238 249 264 152 100 97 131 159 148 141 146 151 152 156 161 161 155 147 145 150 144 131 126 124 128 133 138 140 141 141
8 8 9 10 8 4 1 357 353 348 344 341 343 349 356 0 1 2 2 359 356 351 350 349 346 343 335 327 321 318 313 303 285 266 282 269 278 263 240 245 240 229 227 190 195 231 237 241 239 235 244 250 250 239 245 253 224 215 205 266 130 116 99 101 140 160 142 138 143 142 135 155 170 163 166 155 147 141 131 131 132 134 136 139 141 144 145 143
7 7 8 10 11 10 7 2 358 354 350 349 351 355 3 8 11 12 9 6 2 356 356 350 349 348 338 330 320 319 312 306 109 141 292 295 295 271 237 236 228 222 208 170 198 243 239 240 244 242 245 253 255 242 249 256 243 243 262 320 76 113 109 108 143 148 133 135 137 146 140 150 152 141 180 153 133 136 135 134 137 139 139 141 144 145 146 145
7 7 7 11 14 15 14 10 8 4 4 6 7 10 13 16 16 18 18 13 6 359 358 351 348 344 340 331 314 314 288 299 63 224 291 307 289 269 234 221 211 204 185 176 221 245 232 236 243 239 237 247 258 252 252 255 261 291 328 42 74 113 108 108 143 135 127 137 138 148 136 136 133 123 141 130 127 148 140 139 139 139 141 142 143 146 147 147
10 9 8 13 16 19 20 19 19 18 20 23 23 23 20 20 20 23 27 24 19 8 1 354 348 342 341 326 309 299 258 274 318 233 308 337 306 268 228 206 196 192 180 191 232 234 225 232 234 237 240 243 248 250 256 263 268 278 38 65 79 100 98 116 146 131 125 138 136 126 129 148 135 122 117 131 179 163 141 141 140 140 142 142 144 147 148 147
11 11 12 16 19 23 24 24 25 25 28 30 30 29 24 25 24 27 33 33 31 19 12 2 353 345 332 322 310 287 253 260 335 294 292 316 316 277 214 196 191 188 184 204 228 227 226 230 233 238 240 242 257 273 267 265 262 280 57 76 90 94 97 122 142 132 128 130 122 97 120 150 125 126 130 149 184 160 142 142 140 142 143 144 146 146 148 149
11 13 16 18 22 25 25 26 25 26 28 30 32 30 26 25 23 26 26 25 25 17 15 1 352 346 325 323 310 288 254 268 6 317 292 295 305 265 203 194 191 187 192 213 227 229 228 229 235 238 247 262 289 302 266 263 296 91 89 90 100 102 107 130 137 131 126 121 122 103 110 136 117 134 143 158 172 148 145 144 142 145 145 147 147 146 150 149
12 16 18 21 25 24 25 25 24 24 23 25 27 25 23 18 14 11 2 359 358 358 3 356 350 337 321 323 299 283 182 29 340 326 304 292 288 233 191 190 196 193 202 220 227 230 227 231 239 246 263 273 289 290 254 225 95 96 106 106 101 108 121 147 141 129 118 113 131 123 125 132 122 157 142 152 156 146 148 145 144 148 147 148 146 147 152 149
12 15 17 22 24 23 25 23 22 21 17 18 16 13 10 4 0 354 347 339 334 337 340 345 343 320 318 306 277 277 321 312 315 317 277 274 267 212 183 188 203 202 209 224 229 230 228 235 250 256 260 268 271 271 249 188 140 111 109 103 97 107 122 141 132 125 119 125 147 131 110 92 91 139 137 144 150 150 149 145 149 150 148 150 146 149 151 148
11 13 16 20 21 22 22 19 19 15 11 10 5 3 358 351 347 339 336 329 325 327 323 332 333 314 317 287 259 267 311 301 301 285 240 233 230 201 188 198 208 208 214 226 228 230 233 236 251 255 258 287 266 264 262 183 156 129 113 103 101 104 113 131 130 127 113 146 159 134 101 81 85 135 143 150 152 153 150 149 153 151 150 150 147 150 150 149
10 11 13 15 17 18 17 14 12 8 6 5 1 358 351 347 344 337 334 328 324 322 318 323 321 309 308 288 260 280 299 285 279 254 219 213 208 201 204 212 214 214 218 229 234 231 235 236 245 256 266 278 266 290 335 218 188 145 120 115 118 114 138 152 139 135 130 164 165 153 123 129 145 150 152 155 154 154 155 155 155 152 152 150 151 153 151 151
7 8 8 9 9 7 8 5 4 3 1 0 358 354 350 348 346 343 337 331 326 319 320 321 318 318 291 274 294 316 283 243 251 223 203 208 205 208 215 218 217 215 219 235 248 240 232 237 248 259 263 262 267 301 314 243 217 168 129 129 139 138 159 165 166 161 161 163 161 184 144 148 160 159 159 159 157 160 162 159 158 157 154 152 155 157 152 153
3 4 4 3 360 355 356 357 358 357 356 355 354 350 346 343 344 344 336 339 339 329 332 341 353 347 279 254 278 336 290 198 212 200 196 205 205 215 214 214 212 213 224 231 247 252 234 236 244 250 253 254 262 281 280 242 226 191 159 160 172 159 141 167 187 181 168 150 160 240 129 144 166 169 175 164 159 167 167 163 162 160 158 156 158 159 155 154
356 357 359 358 354 350 349 352 353 352 351 350 347 344 341 336 333 332 337 345 343 334 331 6 5 333 298 285 274 320 261 189 191 184 199 205 208 216 204 206 209 213 222 218 243 266 225 227 237 242 251 250 246 248 246 236 222 212 218 204 166 150 147 175 185 184 183 157 169 215 151 139 163 170 182 170 165 170 167 168 168 162 160 159 161 162 158 157
346 348 353 352 347 347 347 347 347 347 347 345 341 338 335 331 319 316 335 339 331 324 294 135 353 293 278 296 253 228 139 159 167 180 203 209 219 214 192 202 209 209 213 213 236 258 213 220 232 239 244 243 234 231 238 234 213 211 231 216 148 146 157 166 170 183 194 176 168 185 167 156 161 169 181 176 173 171 168 173 173 166 163 162 167 165 160 162
337 336 344 346 339 341 343 342 342 342 342 342 337 332 330 325 307 298 311 332 328 281 257 196 214 272 258 267 261 166 79 226 192 193 198 212 234 210 192 204 203 199 210 216 223 230 219 214 221 234 227 226 232 225 224 230 227 217 229 237 130 149 168 174 171 177 183 181 173 171 169 164 159 174 185 180 181 175 172 176 175 171 166 166 172 167 162 167
329 327 335 339 333 334 337 339 339 340 342 340 336 333 326 303 241 265 324 332 303 262 301 206 215 285 325 298 12 97 344 183 193 203 204 215 217 201 200 204 201 199 207 211 208 210 215 213 217 230 222 217 221 224 235 235 235 231 217 210 97 153 196 185 165 170 174 175 180 169 165 174 167 179 188 181 182 174 166 178 179 176 171 170 175 168 165 169
322 320 325 331 332 331 332 336 336 340 344 340 339 332 324 328 273 240 11 286 255 275 327 308 258 303 323 65 73 7 243 207 212 207 208 215 202 199 201 200 202 205 212 213 198 199 211 222 216 222 225 224 220 223 242 244 243 249 185 124 137 158 192 177 150 172 178 173 184 166 151 181 173 175 194 181 178 173 157 178 182 178 175 177 179 170 168 171
315 313 317 324 327 329 330 331 333 338 340 341 339 324 326 5 0 341 348 292 248 265 321 356 326 307 341 344 303 272 207 210 221 203 196 206 206 202 191 199 205 200 218 225 207 190 209 230 223 224 227 231 233 225 236 248 250 260 106 116 137 122 73 272 167 173 185 173 179 162 151 183 177 172 200 186 176 183 173 171 184 182 177 180 183 174 171 172
310 307 308 314 320 326 325 324 330 334 336 344 340 318 324 5 356 337 332 301 276 282 265 279 281 236 125 311 285 246 210 208 200 190 192 206 217 209 178 198 220 205 210 223 218 189 205 234 231 230 230 234 242 231 232 243 244 242 131 118 135 113 107 274 231 164 191 172 157 182 170 172 175 176 204 197 183 186 182 175 182 187 179 180 187 178 173 174
307 302 301 307 314 320 317 320 327 324 331 342 336 323 332 354 339 331 326 300 289 281 258 312 315 312 52 304 255 210 232 226 189 176 183 213 225 223 207 209 224 221 210 212 221 208 206 226 229 236 235 231 242 237 231 233 235 230 161 149 168 144 144 204 209 176 206 217 173 189 176 143 173 179 203 210 195 181 186 187 184 193 186 180 189 184 175 176
307 300 297 301 309 316 312 314 322 329 335 327 322 326 338 347 334 333 327 294 275 288 7 8 322 11 12 349 117 201 230 227 218 176 174 221 221 210 232 237 226 229 220 209 223 230 228 221 216 232 237 229 240 239 229 231 232 221 207 221 174 160 169 168 166 168 196 231 169 168 162 144 188 185 193 206 200 182 187 198 203 209 200 184 188 188 181 181
306 300 294 294 306 302 301 320 330 338 329 307 305 338 337 341 334 333 323 287 264 221 139 175 287 39 31 81 142 232 254 226 216 171 172 229 225 204 229 243 234 237 226 209 221 234 239 231 209 220 233 229 235 236 228 237 240 226 229 229 185 175 174 150 154 156 161 227 187 164 169 175 187 198 194 179 192 203 190 201 216 216 209 195 188 187 189 190
308 302 292 287 299 286 299 322 312 317 319 299 316 345 338 338 328 330 316 280 262 167 166 141 40 77 111 135 162 256 267 200 163 149 198 229 236 255 256 228 213 239 245 213 218 247 245 245 223 213 227 226 228 232 221 227 240 240 235 224 199 167 129 136 151 159 167 211 183 178 192 151 183 221 200 169 192 210 194 201 216 214 211 205 192 185 189 192
311 302 290 284 290 280 296 310 284 297 323 349 357 338 339 333 322 330 305 267 92 124 224 76 55 29 63 122 248 258 323 60 134 155 230 226 229 261 264 235 209 237 265 238 208 233 241 250 234 210 233 233 219 213 212 216 227 236 251 257 209 145 124 145 155 173 197 121 158 189 206 212 211 221 196 181 192 202 201 203 210 211 212 211 199 188 187 190
314 304 288 279 281 281 291 300 300 304 318 344 342 331 335 327 323 325 290 304 50 315 319 66 68 340 233 162 260 266 80 21 191 150 246 238 223 242 245 253 249 229 243 261 241 190 213 245 230 202 237 244 206 213 226 222 231 240 273 314 257 151 149 162 158 172 166 123 185 208 212 230 214 195 185 189 196 200 203 202 202 206 208 211 204 193 190 192
316 304 284 275 274 283 288 288 307 316 315 323 323 326 326 314 312 290 263 321 5 228 356 55 121 162 228 206 226 219 155 214 231 70 267 242 228 246 263 286 283 246 221 236 256 214 207 239 227 195 229 246 212 225 237 230 238 245 247 318 308 164 162 174 174 183 167 163 207 196 199 221 224 187 181 191 205 205 202 199 200 202 201 208 206 198 197 195
314 302 280 271 263 272 278 277 316 338 328 314 315 322 315 299 287 271 271 343 308 94 45 283 139 98 272 246 205 135 126 208 173 228 239 236 232 239 261 281 285 274 237 208 241 263 255 241 198 191 227 238 232 226 233 234 237 242 217 238 284 227 186 211 203 191 196 216 208 184 189 196 189 200 190 195 208 201 194 191 197 198 194 201 204 201 202 196
310 299 275 263 255 254 262 268 320 343 317 309 318 319 302 280 254 273 303 37 293 17 342 200 67 326 264 274 233 117 213 197 134 214 217 213 229 224 238 243 248 273 261 210 230 261 259 226 177 217 232 235 242 230 224 233 233 237 223 198 243 244 239 262 232 199 223 241 223 182 181 186 197 201 195 204 209 195 194 192 191 194 190 193 199 199 200 196
304 292 269 256 252 240 247 261 291 310 305 314 319 312 293 272 249 266 310 147 221 341 327 43 37 338 296 298 300 37 36 160 109 258 224 233 230 218 237 225 209 255 260 232 226 233 238 225 190 197 223 235 246 229 212 235 233 232 230 195 230 234 208 238 236 217 222 237 256 221 189 194 194 165 183 194 199 194 197 199 192 192 190 189 195 196 196 197
300 284 263 253 249 235 239 262 283 297 311 320 309 296 284 291 296 285 346 3 88 27 313 350 12 337 350 334 341 22 354 88 49 228 198 253 260 245 255 251 254 268 281 276 251 217 213 219 199 190 205 224 239 233 201 215 208 217 230 200 222 239 205 217 229 226 242 248 248 242 220 194 111 128 180 181 189 195 193 199 196 192 191 188 190 192 194 199
295 277 262 253 245 231 237 260 285 299 313 313 297 284 276 286 315 16 7 8 32 359 284 73 329 291 289 306 354 11 303 6 9 309 221 234 240 239 255 243 244 260 278 278 265 235 222 215 202 209 211 204 225 244 235 216 196 203 239 225 226 253 240 234 232 220 246 257 239 224 212 187 130 163 191 173 183 192 184 193 194 189 193 189 187 191 194 199
288 276 262 251 234 224 244 265 289 302 305 299 288 279 280 285 335 8 14 356 352 333 316 74 345 300 296 313 355 25 354 20 19 293 278 284 244 200 277 242 227 254 265 257 278 276 258 239 184 192 220 209 208 241 251 243 216 187 218 234 222 244 264 271 269 252 266 284 267 236 173 72 116 144 149 165 197 196 177 185 187 185 190 186 185 191 193 193
295 283 250 230 225 233 262 274 285 294 291 288 284 285 295 339 359 349 12 338 331 337 320 350 357 317 340 321 335 38 42 16 4 326 289 318 334 153 265 264 254 308 299 262 293 290 269 279 196 181 213 212 197 234 250 252 251 178 193 232 229 242 263 268 260 238 256 281 278 263 99 98 129 133 128 157 194 192 164 182 198 191 183 178 185 193 191 185
262 267 246 226 227 226 238 252 261 268 274 279 285 300 306 6 12 342 10 327 308 305 298 319 17 323 314 13 340 347 111 61 341 323 350 329 325 170 274 312 67 303 302 293 286 278 267 302 296 197 205 200 187 228 249 250 262 229 184 210 215 239 260 272 268 224 221 245 260 265 174 119 165 135 133 158 171 161 169 207 212 194 177 174 186 195 192 186
232 249 253 234 213 199 221 237 247 258 265 270 264 270 282 310 33 1 1 324 301 302 307 339 39 313 312 20 324 300 75 114 228 260 38 353 326 338 323 336 86 284 296 278 244 275 281 293 294 205 194 199 180 210 243 244 252 260 250 224 206 219 229 238 261 251 231 230 230 244 212 93 19 104 155 173 154 153 183 192 192 186 174 170 182 192 191 185
234 254 250 210 179 190 228 235 245 254 255 262 265 248 263 291 61 20 345 325 306 312 333 6 34 293 317 346 320 309 358 281 199 130 98 278 264 286 293 319 8 330 320 302 274 298 292 264 285 210 198 213 187 192 225 225 237 253 268 266 240 233 228 217 226 239 249 245 233 236 211 95 47 103 202 165 138 157 183 174 170 175 173 174 182 189 189 183
250 258 231 175 173 193 216 235 247 251 247 255 272 287 310 314 27 53 354 330 308 295 328 353 346 308 331 333 315 318 300 301 330 128 153 185 192 224 264 343 341 324 327 312 297 305 259 212 281 276 236 227 199 190 215 217 219 230 242 242 228 223 226 224 215 212 238 255 254 256 225 127 88 176 51 87 119 153 175 167 172 171 172 179 180 181 184 185
274 269 204 163 177 189 207 234 240 242 244 251 264 285 13 338 326 331 354 289 290 287 315 320 305 301 328 316 298 311 293 302 338 345 63 123 178 197 17 326 310 327 326 295 279 309 322 213 295 301 280 254 233 202 211 224 220 211 222 234 231 220 209 220 229 216 225 246 250 252 203 137 139 138 84 90 118 152 165 164 167 166 170 178 175 176 182 184
271 266 166 162 178 187 215 239 246 251 254 238 251 236 73 332 290 305 318 261 294 217 208 295 316 326 327 322 326 315 294 307 340 312 67 142 197 75 92 293 306 325 318 296 313 11 2 331 289 288 276 273 285 282 237 230 229 215 214 236 251 238 203 208 237 235 232 225 229 252 226 134 294 4 99 107 125 150 163 164 160 165 171 173 172 173 178 181
265 261 157 163 193 207 226 252 255 254 253 87 86 239 82 263 258 307 348 319 324 328 284 307 326 315 311 304 302 301 307 339 328 308 286 173 104 67 73 329 314 305 302 307 8 31 359 302 297 300 290 282 292 298 272 232 232 226 212 223 243 247 234 229 229 238 251 228 215 239 223 136 301 327 86 103 114 136 158 161 157 163 163 167 175 173 170 176
286 283 193 166 211 218 228 253 251 265 296 69 260 253 103 294 290 330 341 338 345 327 317 327 335 311 318 324 302 301 334 324 305 314 310 284 96 79 26 327 314 317 13 22 5 2 350 348 352 294 292 287 276 288 273 215 220 240 222 207 211 231 251 252 233 229 256 268 269 264 192 125 243 278 96 96 86 72 70 108 138 152 160 167 175 175 171 174
294 282 208 172 216 224 236 264 283 292 299 302 269 257 226 234 238 278 301 302 311 316 315 325 335 295 294 309 295 286 279 259 293 320 299 297 66 60 324 319 301 341 35 20 345 322 307 43 19 260 287 297 266 281 301 242 236 252 231 213 202 214 245 256 241 235 252 282 301 305 129 137 163 150 121 117 117 86 9 336 95 131 161 162 161 167 174 178
287 280 223 187 191 212 239 259 271 277 282 280 262 259 239 222 169 156 272 265 261 298 301 313 322 286 291 315 304 295 296 279 334 344 316 359 359 312 25 301 290 49 46 348 314 295 286 253 213 229 244 271 275 296 305 295 283 260 226 235 225 205 225 246 240 240 227 229 284 66 122 143 152 142 128 130 142 149 161 203 43 102 129 133 145 163 174 177
270 288 287 251 192 213 234 236 237 252 300 341 308 176 227 256 166 145 218 257 351 297 282 284 289 288 310 322 317 332 333 322 356 4 351 16 309 290 345 315 296 84 74 279 236 222 278 272 230 247 254 265 273 283 287 285 289 284 253 271 272 224 214 222 228 251 251 214 173 97 127 143 136 131 128 131 143 153 154 158 167 176 149 132 149 168 170 170
265 278 287 297 248 222 231 242 240 235 239 247 203 153 244 272 274 197 195 196 331 281 276 259 267 288 305 319 325 340 334 323 357 9 339 322 270 300 336 314 301 3 348 267 229 206 285 309 314 286 279 278 274 270 270 270 283 295 307 323 328 319 276 245 225 237 256 251 119 99 114 122 117 123 128 137 152 161 157 154 161 173 161 139 149 162 162 166
286 293 298 317 293 255 279 316 289 267 251 219 141 332 286 263 261 243 167 285 278 334 342 302 298 313 312 335 344 306 321 333 13 62 341 307 301 315 326 308 305 327 327 301 304 18 317 318 316 293 268 271 281 273 260 257 276 331 355 359 358 351 330 295 248 233 275 312 27 90 100 101 106 121 121 135 152 152 150 150 159 171 165 141 136 144 152 165
314 318 320 325 310 289 289 279 254 265 275 100 158 264 269 270 278 309 69 260 285 11 330 281 300 325 310 340 343 291 353 11 333 123 220 266 291 320 332 327 300 309 327 308 306 85 164 278 314 297 262 263 289 279 262 270 336 28 23 11 2 355 343 325 303 315 356 352 14 82 98 97 97 107 107 119 142 146 148 152 154 165 170 159 152 149 149 153
334 322 313 309 300 294 291 273 251 252 222 170 220 223 215 243 264 338 41 248 306 316 300 306 334 332 287 299 293 299 6 17 282 238 224 250 284 273 231 223 261 289 327 306 300 315 253 274 337 304 277 270 281 278 279 310 32 44 34 18 4 358 347 337 346 10 16 3 15 61 86 84 94 110 114 127 148 145 134 122 105 103 92 117 142 146 139 133
341 327 320 305 285 283 282 263 250 246 233 250 244 180 197 235 212 68 340 261 279 276 287 329 336 317 282 271 283 339 354 320 303 304 282 288 290 257 241 235 246 273 322 308 306 298 266 255 300 300 289 282 283 290 295 287 139 58 34 23 15 15 343 326 358 21 18 10 18 56 91 94 103 122 132 134 128 100 89 81 78 102 94 73 96 121 118 108
Height
1519 1518 1517 1516 1515 1514 1513 1512 1511 1510 1509 1508 1507 1507 1507 1506 1506 1506 1505 1505 1505 1504 1504 1503 1502 1501 1500 1499 1498 1497 1497 1496 1495 1495 1493 1493 1494 1494 1495 1495 1495 1496 1496 1497 1497 1499 1501 1501 1502 1502 1503 1501 1500 1498 1496 1495 1494 1496 1501 1509 1512 1512 1511 1505 1506 1508 1506 1509 1509 1509 1509 1509 1510 1510 1510 1510 1510 1510 1510 1510 1510 1513 1515 1519 1524 1527 1529 1532
1520 1519 1518 1517 1515 1514 1513 1512 1511 1510 1509 1508 1507 1507 1506 1506 1506 1505 1505 1505 1504 1504 1503 1503 1502 1501 1500 1499 1498 1497 1496 1495 1494 1492 1491 1492 1493 1493 1494 1494 1495 1495 1496 1496 1497 1499 1500 1501 1501 1502 1501 1499 1497 1495 1494 1492 1492 1496 1501 1509 1510 1505 1502 1497 1499 1501 1502 1507 1508 1508 1509 1509 1510 1509 1510 1511 1511 1510 1510 1509 1510 1514 1517 1522 1526 1529 1531 1533
1520 1519 1518 1517 1516 1514 1513 1512 1511 1510 1509 1508 1507 1507 1506 1506 1505 1505 1505 1504 1504 1504 1503 1503 1502 1501 1500 1499 1498 1497 1496 1494 1493 1490 1489 1491 1492 1492 1493 1493 1494 1495 1495 1495 1497 1499 1500 1500 1500 1501 1500 1497 1495 1493 1492 1490 1491 1493 1499 1512 1509 1497 1496 1498 1498 1500 1502 1504 1506 1508 1509 1509 1510 1510 1511 1511 1511 1510 1509 1509 1512 1515 1519 1523 1527 1530 1532 1534
1521 1520 1519 1518 1517 1515 1513 1512 1511 1510 1509 1508 1507 1506 1506 1505 1505 1505 1504 1504 1504 1503 1503 1502 1502 1501 1500 1498 1498 1497 1495 1494 1491 1489 1489 1490 1491 1492 1492 1492 1493 1494 1495 1495 1496 1499 1501 1500 1500 1499 1498 1496 1492 1491 1490 1488 1490 1490 1495 1506 1501 1493 1498 1503 1501 1501 1503 1505 1507 1508 1509 1510 1510 1512 1512 1511 1513 1512 1510 1511 1514 1516 1520 1523 1527 1530 1532 1534
1522 1520 1519 1518 1517 1515 1514 1512 1511 1510 1509 1508 1507 1506 1506 1505 1505 1505 1504 1504 1504 1503 1503 1502 1501 1501 1499 1499 1498 1496 1496 1494 1491 1489 1490 1490 1491 1491 1491 1492 1492 1493 1495 1496 1496 1498 1500 1499 1499 1498 1497 1495 1490 1490 1488 1485 1486 1487 1489 1491 1490 1491 1499 1506 1505 1504 1505 1507 1509 1509 1510 1511 1511 1513 1514 1513 1516 1515 1512 1514 1516 1518 1521 1523 1527 1530 1533 1535
1523 1521 1520 1518 1517 1516 1514 1513 1511 1510 1509 1508 1507 1507 1506 1506 1505 1505 1505 1504 1504 1503 1503 1502 1501 1500 1499 1499 1497 1497 1497 1494 1490 1490 1490 1490 1490 1490 1490 1491 1491 1493 1494 1495 1496 1498 1499 1499 1498 1497 1496 1494 1490 1488 1486 1484 1483 1488 1491 1489 1490 1493 1497 1506 1508 1507 1508 1508 1510 1510 1510 1511 1511 1515 1516 1515 1516 1515 1514 1515 1517 1520 1523 1525 1527 1530 1533 1535
1523 1521 1520 1519 1518 1517 1515 1514 1512 1511 1510 1509 1508 1507 1507 1506 1506 1505 1505 1504 1504 1503 1502 1502 1501 1500 1499 1498 1497 1497 1496 1492 1489 1490 1490 1489 1490 1489 1490 1490 1491 1493 1494 1495 1496 1497 1498 1498 1497 1495 1494 1493 1488 1485 1483 1483 1482 1487 1493 1492 1494 1496 1499 1505 1506 1507 1509 1510 1511 1511 1512 1512 1513 1516 1518 1517 1517 1516 1516 1517 1519 1522 1524 1526 1528 1531 1533 1535
1524 1522 1521 1520 1518 1517 1516 1515 1513 1512 1511 1510 1509 1508 1507 1507 1506 1506 1505 1504 1504 1503 1502 1502 1501 1500 1499 1498 1497 1496 1494 1492 1490 1489 1490 1490 1489 1489 1489 1489 1490 1492 1493 1495 1496 1497 1497 1496 1496 1494 1493 1489 1485 1482 1482 1484 1483 1486 1493 1494 1497 1501 1503 1506 1507 1508 1510 1510 1512 1512 1513 1513 1514 1516 1518 1517 1517 1517 1517 1518 1520 1522 1525 1527 1529 1531 1533 1535
1524 1523 1521 1520 1519 1518 1517 1515 1514 1513 1512 1511 1510 1509 1508 1508 1507 1506 1506 1505 1504 1503 1502 1502 1500 1500 1499 1497 1498 1496 1492 1491 1491 1489 1489 1490 1489 1489 1489 1489 1490 1492 1493 1495 1496 1497 1496 1495 1495 1493 1491 1487 1484 1483 1481 1487 1490 1488 1493 1497 1500 1505 1506 1509 1511 1510 1510 1511 1512 1513 1513 1514 1515 1516 1518 1518 1517 1518 1518 1519 1521 1523 1525 1527 1529 1532 1534 1535
1524 1523 1522 1521 1520 1519 1518 1516 1515 1514 1513 1512 1511 1510 1509 1508 1507 1507 1506 1505 1504 1503 1502 1502 1500 1499 1498 1498 1498 1495 1491 1492 1492 1490 1489 1489 1489 1489 1489 1490 1491 1492 1494 1495 1495 1495 1495 1495 1494 1493 1492 1487 1485 1484 1480 1487 1492 1490 1493 1498 1503 1508 1509 1511 1512 1511 1512 1513 1513 1514 1515 1514 1514 1517 1519 1519 1517 1518 1518 1519 1521 1523 1526 1527 1529 1532 1534 1536
1525 1524 1523 1521 1521 1519 1518 1517 1516 1515 1514 1513 1512 1511 1510 1509 1508 1507 1506 1505 1504 1503 1502 1501 1500 1499 1498 1498 1498 1494 1491 1492 1492 1492 1491 1489 1489 1489 1489 1491 1492 1493 1494 1495 1495 1495 1495 1495 1494 1494 1492 1488 1486 1483 1479 1483 1489 1492 1494 1498 1504 1508 1510 1512 1512 1512 1513 1514 1515 1514 1514 1515 1515 1517 1518 1517 1517 1518 1518 1519 1521 1523 1526 1528 1530 1532 1534 1536
1525 1524 1523 1522 1521 1520 1519 1518 1517 1516 1515 1514 1512 1511 1510 1509 1508 1507 1506 1505 1503 1503 1502 1501 1500 1499 1498 1497 1496 1493 1491 1493 1492 1492 1491 1490 1490 1490 1490 1492 1492 1493 1494 1494 1494 1494 1495 1494 1495 1493 1490 1488 1486 1483 1480 1481 1486 1491 1493 1500 1507 1508 1512 1514 1511 1513 1513 1515 1516 1513 1518 1522 1519 1518 1518 1517 1518 1518 1519 1520 1521 1523 1526 1528 1530 1533 1534 1536
1526 1525 1524 1523 1522 1521 1520 1518 1517 1516 1515 1514 1513 1511 1510 1509 1507 1506 1505 1504 1503 1502 1501 1500 1499 1498 1498 1495 1493 1492 1492 1492 1492 1491 1491 1491 1491 1491 1492 1492 1493 1493 1494 1494 1493 1494 1495 1494 1494 1493 1491 1489 1486 1484 1482 1480 1484 1490 1492 1499 1508 1513 1517 1516 1514 1515 1514 1516 1515 1514 1526 1531 1524 1519 1518 1518 1519 1519 1520 1520 1522 1523 1526 1528 1531 1533 1534 1537
1526 1525 1524 1523 1522 1521 1520 1519 1518 1517 1515 1514 1513 1512 1510 1509 1508 1506 1505 1503 1502 1502 1500 1500 1499 1498 1498 1494 1492 1492 1490 1491 1491 1491 1491 1491 1491 1492 1492 1492 1493 1493 1493 1494 1493 1493 1494 1494 1494 1493 1492 1490 1486 1485 1484 1481 1482 1488 1495 1500 1507 1516 1520 1517 1516 1517 1516 1518 1516 1517 1529 1532 1524 1520 1518 1519 1520 1520 1520 1520 1522 1524 1525 1528 1531 1533 1534 1537
1527 1525 1525 1524 1523 1522 1520 1519 1518 1517 1516 1514 1513 1511 1510 1509 1507 1506 1505 1503 1502 1501 1500 1500 1499 1498 1497 1493 1491 1491 1489 1489 1490 1490 1491 1491 1491 1491 1491 1492 1492 1493 1493 1494 1493 1493 1493 1494 1495 1493 1492 1490 1488 1489 1488 1486 1483 1485 1498 1506 1506 1511 1518 1518 1516 1515 1516 1518 1517 1520 1530 1530 1524 1521 1519 1520 1521 1521 1520 1521 1522 1523 1526 1528 1531 1532 1534 1537
1527 1526 1525 1524 1523 1522 1521 1520 1518 1517 1516 1514 1513 1511 1510 1509 1507 1506 1504 1503 1503 1501 1500 1500 1499 1499 1497 1491 1490 1491 1489 1489 1489 1491 1491 1491 1491 1491 1491 1492 1492 1492 1493 1493 1493 1492 1493 1494 1494 1493 1491 1489 1488 1490 1491 1491 1489 1486 1492 1501 1504 1508 1519 1520 1514 1512 1513 1516 1519 1524 1529 1529 1524 1520 1520 1520 1521 1521 1521 1521 1522 1523 1526 1528 1531 1532 1534 1537
1527 1526 1525 1524 1523 1522 1521 1520 1519 1517 1516 1514 1512 1510 1510 1508 1507 1506 1504 1503 1502 1501 1500 1499 1499 1500 1496 1491 1490 1490 1489 1490 1490 1491 1491 1491 1491 1490 1491 1492 1492 1492 1492 1493 1493 1492 1493 1493 1493 1492 1490 1488 1485 1488 1496 1500 1496 1490 1486 1490 1498 1506 1514 1518 1515 1514 1513 1516 1521 1523 1524 1525 1522 1519 1520 1520 1521 1521 1521 1522 1522 1523 1525 1528 1530 1532 1534 1536
1527 1526 1525 1524 1523 1522 1521 1520 1519 1517 1516 1514 1512 1510 1509 1507 1506 1505 1503 1502 1501 1501 1500 1499 1499 1500 1496 1490 1489 1490 1490 1490 1491 1491 1491 1491 1490 1490 1491 1491 1491 1492 1492 1492 1492 1492 1492 1490 1490 1490 1488 1489 1486 1487 1498 1498 1490 1490 1490 1492 1500 1505 1508 1513 1515 1513 1511 1515 1520 1521 1523 1523 1522 1520 1521 1521 1522 1521 1521 1522 1523 1523 1525 1528 1529 1531 1534 1536
1527 1526 1525 1524 1523 1522 1521 1520 1519 1517 1515 1514 1512 1509 1508 1506 1505 1504 1503 1502 1501 1500 1498 1497 1497 1496 1493 1490 1489 1491 1490 1491 1491 1491 1491 1490 1490 1490 1490 1491 1490 1491 1491 1491 1490 1489 1490 1489 1490 1493 1491 1489 1486 1485 1488 1484 1479 1483 1487 1492 1503 1509 1508 1509 1510 1506 1507 1514 1518 1519 1522 1523 1523 1522 1521 1521 1521 1522 1522 1522 1523 1524 1525 1527 1528 1530 1533 1535
1526 1526 1525 1524 1523 1522 1521 1520 1519 1517 1516 1514 1511 1508 1506 1504 1503 1502 1502 1501 1500 1497 1495 1494 1493 1490 1489 1489 1490 1491 1491 1491 1491 1490 1491 1490 1490 1490 1489 1490 1489 1489 1489 1488 1487 1486 1487 1490 1492 1491 1488 1483 1479 1479 1477 1473 1472 1476 1481 1491 1501 1508 1508 1507 1508 1505 1503 1513 1518 1517 1522 1524 1522 1522 1522 1522 1521 1521 1522 1522 1523 1524 1525 1527 1528 1530 1533 1534
1526 1525 1524 1524 1523 1522 1521 1520 1519 1518 1516 1514 1512 1509 1506 1505 1504 1503 1503 1500 1497 1496 1495 1493 1493 1491 1489 1490 1490 1490 1490 1491 1490 1490 1490 1490 1489 1489 1488 1487 1488 1489 1487 1483 1482 1482 1486 1491 1489 1483 1480 1476 1473 1473 1474 1473 1472 1475 1483 1492 1502 1513 1515 1509 1509 1507 1503 1512 1520 1518 1524 1527 1522 1524 1524 1521 1521 1521 1522 1523 1523 1523 1525 1527 1528 1529 1532 1534
1526 1525 1524 1524 1523 1522 1521 1520 1519 1518 1516 1514 1512 1510 1508 1508 1508 1507 1505 1500 1495 1494 1494 1492 1491 1489 1489 1491 1490 1489 1490 1488 1487 1489 1489 1489 1489 1487 1486 1486 1486 1486 1483 1481 1481 1484 1489 1489 1483 1475 1472 1472 1471 1470 1471 1473 1475 1479 1486 1493 1502 1516 1522 1516 1509 1509 1510 1514 1520 1521 1526 1529 1523 1524 1524 1520 1520 1521 1521 1522 1523 1523 1525 1527 1528 1529 1531 1533
1525 1524 1524 1523 1522 1522 1521 1519 1519 1517 1515 1514 1512 1510 1510 1510 1509 1508 1507 1501 1495 1492 1490 1490 1488 1485 1487 1489 1488 1490 1489 1485 1485 1487 1489 1489 1487 1485 1485 1483 1484 1483 1480 1481 1482 1485 1490 1485 1477 1471 1469 1471 1472 1469 1469 1474 1476 1477 1486 1494 1501 1508 1517 1518 1512 1511 1515 1515 1517 1519 1524 1530 1528 1526 1525 1522 1520 1520 1522 1523 1523 1524 1525 1527 1528 1529 1531 1532
1524 1524 1524 1522 1522 1521 1520 1519 1518 1516 1514 1513 1512 1512 1512 1511 1510 1508 1506 1502 1495 1490 1489 1490 1489 1487 1488 1488 1488 1489 1487 1485 1485 1486 1489 1489 1485 1485 1484 1480 1481 1481 1478 1477 1478 1481 1482 1475 1469 1469 1468 1470 1473 1471 1470 1477 1476 1473 1480 1488 1494 1500 1504 1508 1508 1509 1513 1513 1512 1516 1527 1533 1530 1529 1527 1523 1521 1521 1523 1523 1523 1524 1524 1526 1528 1529 1531 1532
1524 1524 1523 1522 1522 1520 1519 1519 1517 1515 1514 1512 1512 1513 1512 1511 1510 1509 1507 1503 1496 1489 1489 1491 1488 1488 1489 1488 1489 1488 1485 1485 1484 1485 1488 1487 1484 1483 1482 1479 1480 1481 1476 1474 1476 1478 1475 1466 1465 1470 1469 1469 1473 1472 1470 1475 1477 1477 1476 1474 1482 1491 1494 1501 1507 1510 1518 1520 1512 1518 1538 1540 1527 1526 1527 1523 1524 1524 1523 1523 1523 1525 1524 1525 1527 1528 1530 1532
1524 1523 1522 1522 1521 1520 1520 1518 1516 1516 1514 1513 1513 1513 1513 1512 1509 1509 1507 1504 1497 1488 1486 1488 1488 1489 1488 1488 1489 1487 1486 1485 1484 1486 1487 1486 1484 1482 1481 1478 1477 1479 1473 1469 1474 1475 1470 1463 1462 1467 1470 1469 1471 1473 1471 1474 1483 1486 1473 1463 1469 1479 1490 1503 1508 1513 1523 1523 1510 1512 1533 1542 1533 1528 1524 1522 1527 1525 1523 1523 1522 1523 1525 1524 1525 1527 1528 1531
1523 1523 1522 1522 1521 1520 1520 1517 1517 1515 1513 1514 1514 1513 1514 1511 1510 1509 1508 1510 1502 1487 1483 1485 1487 1488 1487 1488 1487 1486 1490 1488 1484 1487 1486 1486 1485 1483 1483 1478 1475 1477 1468 1467 1479 1477 1469 1467 1464 1466 1469 1470 1471 1476 1473 1471 1483 1484 1465 1457 1463 1472 1489 1500 1504 1512 1516 1514 1512 1510 1520 1538 1538 1527 1520 1520 1526 1526 1522 1522 1521 1521 1523 1523 1524 1525 1527 1529
1523 1522 1522 1521 1521 1520 1519 1518 1517 1515 1515 1515 1514 1514 1513 1511 1511 1508 1514 1522 1505 1485 1484 1485 1486 1488 1485 1487 1486 1483 1488 1488 1486 1488 1485 1485 1485 1482 1482 1477 1474 1475 1467 1473 1483 1474 1466 1468 1466 1467 1472 1472 1471 1474 1469 1467 1477 1474 1460 1458 1460 1469 1483 1488 1495 1507 1508 1515 1526 1517 1516 1538 1536 1518 1518 1521 1522 1524 1521 1518 1519 1519 1521 1522 1523 1524 1526 1528
1522 1522 1521 1521 1520 1520 1519 1518 1517 1516 1515 1515 1514 1514 1511 1512 1511 1507 1518 1525 1499 1482 1486 1485 1485 1487 1484 1484 1483 1480 1483 1485 1486 1488 1485 1485 1485 1482 1482 1478 1474 1472 1467 1472 1477 1468 1463 1464 1461 1465 1473 1473 1470 1469 1465 1466 1472 1465 1459 1463 1462 1465 1475 1480 1488 1496 1501 1516 1526 1516 1514 1533 1535 1519 1518 1525 1522 1519 1516 1514 1515 1517 1519 1521 1521 1524 1525 1527
1522 1521 1521 1520 1520 1520 1519 1517 1517 1516 1515 1515 1515 1513 1511 1511 1510 1514 1527 1518 1491 1483 1487 1483 1483 1485 1482 1481 1479 1478 1481 1482 1483 1485 1484 1484 1483 1482 1482 1480 1476 1472 1468 1469 1472 1468 1461 1459 1460 1465 1471 1470 1467 1466 1464 1464 1465 1460 1461 1470 1471 1468 1470 1476 1476 1480 1498 1509 1504 1500 1500 1514 1533 1528 1516 1516 1513 1507 1509 1512 1512 1514 1517 1519 1520 1523 1524 1526
1521 1521 1520 1519 1519 1519 1518 1517 1517 1516 1516 1515 1514 1511 1511 1508 1508 1522 1524 1499 1484 1487 1483 1480 1481 1480 1479 1480 1479 1478 1479 1480 1480 1483 1485 1483 1483 1483 1482 1483 1482 1480 1476 1472 1474 1470 1464 1464 1465 1466 1468 1467 1467 1466 1463 1460 1458 1460 1465 1473 1481 1481 1478 1483 1480 1482 1505 1508 1487 1484 1488 1499 1522 1522 1508 1504 1500 1499 1503 1505 1508 1510 1513 1517 1519 1521 1522 1525
1520 1520 1519 1519 1519 1518 1517 1517 1516 1517 1516 1514 1514 1511 1510 1510 1512 1516 1503 1484 1489 1494 1482 1480 1482 1477 1477 1479 1480 1478 1478 1480 1480 1483 1485 1484 1485 1484 1482 1484 1484 1488 1487 1479 1476 1474 1470 1466 1463 1466 1467 1466 1470 1471 1468 1464 1462 1467 1471 1478 1494 1497 1496 1504 1500 1494 1502 1498 1480 1473 1479 1493 1503 1499 1494 1496 1495 1495 1497 1497 1501 1506 1509 1514 1517 1518 1521 1523
1520 1519 1518 1518 1518 1517 1517 1516 1515 1517 1515 1514 1515 1509 1509 1518 1514 1500 1488 1485 1491 1491 1482 1482 1483 1480 1480 1481 1482 1479 1478 1482 1481 1482 1484 1484 1486 1485 1481 1479 1479 1487 1491 1484 1480 1478 1475 1467 1461 1467 1470 1466 1469 1474 1476 1474 1471 1475 1476 1483 1499 1501 1506 1515 1506 1497 1497 1490 1476 1468 1474 1492 1499 1492 1487 1489 1490 1491 1494 1496 1499 1503 1507 1512 1514 1517 1520 1522
1519 1518 1518 1517 1517 1517 1516 1516 1516 1516 1515 1515 1514 1508 1514 1522 1507 1489 1488 1489 1485 1483 1481 1482 1484 1483 1482 1483 1483 1479 1480 1483 1482 1483 1485 1484 1488 1488 1484 1481 1479 1482 1485 1486 1483 1478 1480 1478 1468 1470 1471 1466 1468 1468 1468 1467 1470 1475 1471 1476 1490 1489 1496 1506 1498 1496 1499 1488 1474 1468 1475 1488 1497 1497 1487 1484 1487 1489 1494 1498 1498 1502 1506 1511 1515 1517 1520 1521
1518 1518 1518 1517 1516 1516 1516 1516 1516 1515 1516 1515 1511 1511 1516 1514 1499 1491 1494 1491 1486 1485 1480 1479 1484 1487 1486 1484 1481 1481 1486 1489 1486 1486 1487 1486 1487 1488 1487 1484 1480 1480 1484 1490 1487 1478 1480 1475 1461 1463 1464 1461 1467 1463 1457 1462 1468 1469 1468 1476 1484 1477 1480 1488 1485 1483 1488 1491 1483 1473 1478 1482 1484 1490 1487 1487 1490 1488 1494 1498 1497 1502 1505 1508 1513 1515 1518 1520
1518 1517 1517 1516 1516 1516 1516 1516 1515 1515 1517 1514 1512 1513 1507 1498 1495 1495 1495 1492 1490 1489 1484 1483 1487 1491 1492 1489 1487 1487 1488 1489 1488 1489 1492 1490 1488 1487 1486 1482 1479 1480 1482 1487 1488 1483 1485 1475 1456 1459 1461 1456 1463 1463 1456 1463 1467 1465 1472 1479 1473 1465 1470 1482 1484 1477 1482 1500 1495 1477 1484 1488 1485 1491 1494 1495 1496 1490 1492 1495 1496 1501 1505 1507 1512 1514 1517 1520
1519 1518 1517 1516 1516 1516 1517 1516 1516 1517 1516 1513 1515 1514 1500 1492 1494 1492 1491 1492 1491 1489 1489 1491 1493 1494 1495 1493 1493 1491 1488 1492 1495 1494 1496 1497 1492 1487 1484 1482 1480 1481 1479 1481 1486 1483 1485 1483 1462 1458 1465 1458 1458 1464 1458 1457 1460 1465 1474 1473 1465 1466 1472 1478 1487 1486 1490 1506 1497 1478 1487 1495 1494 1499 1497 1497 1502 1500 1498 1498 1497 1499 1504 1509 1513 1516 1518 1519
1518 1517 1517 1516 1515 1516 1517 1516 1516 1516 1514 1512 1513 1509 1499 1493 1493 1491 1492 1492 1489 1488 1490 1495 1497 1494 1493 1495 1495 1489 1488 1496 1500 1497 1500 1503 1499 1491 1486 1484 1481 1480 1476 1479 1486 1480 1481 1490 1472 1456 1464 1461 1455 1466 1469 1460 1456 1461 1463 1459 1465 1480 1485 1484 1491 1493 1496 1506 1499 1483 1487 1497 1499 1500 1496 1494 1502 1505 1504 1503 1500 1499 1501 1506 1510 1514 1517 1518
1517 1517 1515 1513 1514 1516 1516 1516 1516 1514 1513 1512 1508 1502 1496 1492 1491 1492 1494 1492 1490 1491 1492 1494 1496 1494 1491 1493 1494 1489 1488 1493 1494 1497 1505 1507 1504 1496 1489 1487 1484 1481 1478 1476 1482 1479 1479 1494 1487 1464 1461 1462 1459 1469 1477 1472 1462 1460 1461 1459 1461 1471 1477 1478 1481 1485 1492 1499 1496 1490 1494 1502 1502 1497 1494 1495 1499 1502 1503 1502 1500 1498 1500 1503 1508 1512 1515 1517
1518 1515 1511 1511 1513 1514 1514 1515 1514 1512 1511 1509 1502 1496 1494 1491 1490 1492 1495 1494 1491 1491 1493 1493 1494 1496 1494 1493 1493 1490 1489 1489 1488 1493 1498 1498 1499 1496 1489 1487 1486 1484 1481 1478 1480 1479 1478 1491 1494 1476 1464 1465 1468 1469 1472 1473 1469 1468 1471 1470 1467 1466 1466 1470 1471 1473 1481 1490 1494 1498 1507 1508 1496 1490 1491 1495 1500 1503 1502 1500 1498 1498 1501 1503 1506 1511 1513 1515
1517 1513 1508 1510 1512 1513 1514 1514 1511 1508 1505 1502 1497 1493 1494 1495 1493 1491 1493 1494 1492 1491 1492 1492 1492 1494 1494 1494 1494 1492 1489 1489 1488 1490 1492 1491 1494 1496 1491 1489 1488 1485 1484 1482 1481 1481 1482 1489 1496 1490 1479 1473 1468 1460 1460 1463 1464 1467 1470 1468 1466 1464 1466 1478 1483 1471 1468 1479 1486 1493 1509 1510 1492 1486 1490 1492 1496 1498 1496 1498 1498 1497 1501 1503 1505 1509 1511 1514
1516 1511 1507 1509 1511 1511 1512 1510 1506 1501 1497 1496 1495 1493 1496 1499 1496 1492 1491 1491 1490 1490 1490 1490 1490 1492 1493 1493 1493 1492 1490 1491 1491 1492 1492 1491 1491 1492 1491 1489 1487 1485 1487 1486 1482 1482 1484 1489 1497 1496 1487 1478 1468 1457 1456 1457 1454 1457 1462 1461 1460 1458 1463 1480 1489 1477 1467 1473 1476 1477 1499 1510 1493 1484 1490 1491 1491 1493 1494 1497 1497 1498 1501 1502 1504 1508 1510 1513
1513 1509 1506 1508 1509 1510 1511 1509 1504 1498 1491 1491 1493 1492 1495 1498 1495 1493 1492 1491 1491 1491 1490 1490 1490 1492 1494 1492 1492 1492 1492 1494 1494 1492 1491 1489 1488 1488 1489 1489 1488 1485 1485 1487 1486 1486 1488 1493 1500 1501 1490 1479 1470 1461 1455 1453 1453 1458 1460 1459 1461 1460 1460 1466 1471 1471 1470 1473 1472 1473 1496 1512 1499 1488 1493 1493 1491 1494 1496 1499 1499 1499 1501 1501 1504 1506 1509 1513
1512 1508 1506 1508 1508 1508 1509 1506 1502 1497 1491 1490 1492 1493 1495 1497 1496 1495 1496 1494 1493 1493 1492 1492 1491 1492 1492 1489 1490 1491 1492 1497 1498 1493 1491 1491 1490 1489 1489 1490 1488 1485 1487 1490 1490 1490 1493 1498 1504 1510 1508 1498 1487 1478 1468 1459 1459 1463 1459 1456 1460 1460 1460 1459 1457 1464 1472 1471 1467 1475 1498 1512 1502 1496 1499 1498 1496 1497 1498 1501 1501 1501 1501 1502 1504 1505 1508 1513
1513 1507 1503 1505 1508 1507 1506 1502 1498 1497 1494 1493 1495 1495 1495 1497 1497 1499 1499 1497 1496 1495 1494 1492 1491 1492 1490 1489 1491 1489 1489 1494 1497 1496 1494 1492 1491 1490 1490 1490 1489 1487 1489 1493 1492 1492 1495 1498 1502 1513 1524 1524 1511 1498 1488 1477 1469 1464 1456 1454 1458 1460 1463 1463 1461 1470 1481 1476 1468 1478 1500 1509 1499 1496 1500 1502 1503 1505 1503 1502 1502 1502 1503 1503 1504 1506 1508 1512
1513 1507 1500 1500 1503 1504 1503 1500 1499 1497 1493 1493 1496 1496 1495 1496 1496 1498 1499 1496 1496 1496 1495 1493 1491 1491 1491 1491 1493 1492 1489 1489 1492 1498 1498 1496 1495 1492 1490 1491 1489 1488 1492 1494 1493 1493 1494 1494 1497 1505 1514 1517 1509 1497 1488 1482 1476 1468 1461 1458 1458 1458 1461 1464 1468 1475 1477 1474 1477 1484 1493 1499 1496 1492 1495 1500 1505 1509 1507 1504 1502 1503 1505 1504 1505 1507 1508 1511
1515 1509 1501 1498 1500 1501 1499 1497 1496 1495 1492 1493 1496 1496 1496 1495 1494 1497 1498 1496 1496 1497 1495 1493 1492 1493 1494 1495 1496 1497 1496 1493 1494 1498 1500 1500 1500 1496 1493 1493 1490 1489 1493 1492 1491 1493 1495 1496 1495 1497 1500 1500 1497 1491 1483 1481 1479 1472 1468 1468 1463 1458 1458 1462 1470 1470 1463 1470 1490 1492 1486 1492 1496 1492 1493 1498 1501 1504 1506 1505 1504 1505 1507 1506 1505 1506 1508 1510
1515 1509 1501 1500 1500 1497 1495 1494 1491 1490 1492 1493 1494 1493 1495 1496 1495 1496 1496 1495 1496 1496 1495 1495 1494 1493 1493 1494 1497 1500 1502 1502 1501 1502 1502 1501 1500 1500 1498 1496 1491 1490 1490 1488 1487 1489 1495 1498 1495 1495 1498 1494 1490 1488 1482 1480 1480 1475 1474 1478 1476 1468 1464 1462 1463 1463 1460 1467 1483 1487 1485 1492 1495 1492 1494 1497 1498 1499 1501 1503 1505 1506 1507 1507 1506 1506 1507 1510
1514 1509 1504 1502 1499 1493 1492 1493 1490 1490 1491 1491 1492 1494 1497 1498 1496 1492 1492 1496 1497 1495 1497 1499 1496 1494 1492 1492 1497 1501 1502 1504 1506 1506 1505 1503 1500 1501 1502 1499 1495 1491 1490 1489 1487 1488 1496 1502 1498 1496 1498 1495 1490 1488 1482 1480 1484 1484 1483 1485 1486 1484 1479 1470 1460 1457 1461 1466 1471 1477 1485 1492 1492 1490 1491 1494 1496 1498 1498 1500 1503 1504 1506 1507 1508 1509 1509 1509
1516 1514 1510 1508 1502 1495 1493 1492 1491 1493 1493 1493 1496 1497 1497 1499 1496 1491 1493 1499 1500 1498 1499 1500 1496 1494 1494 1494 1498 1500 1499 1502 1505 1505 1505 1504 1502 1501 1503 1503 1499 1495 1493 1492 1490 1490 1498 1503 1500 1497 1499 1499 1494 1488 1484 1483 1486 1491 1493 1491 1490 1492 1491 1483 1471 1465 1471 1475 1473 1476 1486 1492 1491 1489 1490 1494 1497 1498 1497 1498 1500 1503 1506 1507 1509 1511 1512 1513
1519 1518 1516 1513 1507 1501 1498 1493 1490 1493 1495 1496 1497 1496 1497 1499 1496 1494 1496 1499 1501 1501 1499 1498 1496 1495 1495 1496 1498 1498 1496 1497 1500 1499 1499 1499 1499 1500 1500 1501 1499 1497 1496 1495 1493 1493 1497 1502 1502 1501 1505 1506 1498 1491 1490 1489 1490 1495 1500 1499 1499 1502 1505 1501 1490 1483 1486 1485 1482 1486 1494 1497 1493 1491 1493 1496 1497 1498 1498 1499 1501 1504 1506 1509 1510 1512 1514 1515
1520 1518 1516 1515 1510 1504 1501 1496 1492 1493 1495 1494 1492 1492 1496 1496 1493 1496 1502 1502 1501 1501 1499 1498 1498 1498 1497 1497 1498 1498 1498 1498 1498 1496 1496 1496 1495 1496 1496 1495 1495 1496 1496 1496 1496 1494 1494 1499 1503 1506 1513 1510 1499 1495 1495 1496 1505 1513 1507 1503 1505 1507 1512 1510 1499 1491 1490 1489 1491 1498 1502 1499 1496 1495 1496 1496 1497 1499 1501 1503 1505 1506 1507 1510 1513 1515 1515 1516